Flag for Canada Weather past 2 weeks in Denare Beach, Saskatchewan, Canada

Now
63 °F

Clear.


Feels Like: 63 °F
Forecast: 65 / 78 °F
Wind: 2 mph from Southeast

Location: The Pas

Current Time: Aug 1, 2014 at 12:48:50 AM

Latest Report: Aug 1, 2014 at 12:00 AM


Visibility: 15 mi

Pressure: 30.01 "Hg

Humidity: 94%

Dew point: 61 °F

Location of Denare BeachLocation

Historic Weather in Denare Beach — Graph

°F

Denare Beach temperature yesterday

Maximum temperature yesterday: 84 °F (at 2:00 PM)
Minimum temperature yesterday: 59 °F (at 6:00 AM)
Average temperature yesterday: 72 °F

Past Weeks' High & Low Weather Summary

 TemperatureHumidityPressure
High86 °F (Jul 30, 4:00 PM)100% (Jul 18, 2:00 PM)30.30 "Hg (Jul 18, 2:00 PM)
Low52 °F (Jul 19, 6:00 AM)32% (Jul 17, 6:00 PM)29.40 "Hg (Jul 18, 2:00 PM)
Average67 °F71%29.91 "Hg
* Reported Jul 16 11:00 PM — Jul 31 11:00 PM, Denare Beach, Weather by CustomWeather, © 2014

Note: Actual official high and low records may vary slightly from our data, if they occured in-between our weather recording intervals... More about our weather records

Advertising

Denare Beach weather history for previous 24 hours

 ConditionsComfort  
Time TempWeatherWind HumidityBarometerVisibility
11:00 PM
Jul 31
64 °FOvercast.5 mph88%30.00 "Hg15 mi
10:00 PM66 °FOvercast.6 mph83%30.01 "Hg15 mi
9:00 PM66 °FThunderstorms. Cloudy.9 mph83%30.01 "Hg15 mi
8:00 PM68 °FStrong thunderstorms. Fog.18 mph78%30.05 "Hg1 mi
7:56 PMN/AThunderstorms.15 mphN/AN/A2 mi
7:00 PM81 °FScattered showers. Cloudy.5 mph48%30.00 "Hg12 mi
6:00 PM84 °FCloudy.6 mph40%29.99 "Hg12 mi
5:00 PM82 °FPartly sunny.3 mph42%30.00 "Hg12 mi
4:00 PM79 °FThunderstorms. Mostly cloudy.15 mph42%30.01 "Hg9 mi
3:00 PM82 °FThunderstorms. Broken clouds.6 mph37%29.99 "Hg12 mi
2:56 PMN/AThunderstorms.7 mphN/AN/A15 mi
2:00 PM84 °FSprinkles. Broken clouds.7 mph40%30.01 "Hg15 mi
1:00 PM82 °FPartly sunny.5 mph45%30.01 "Hg15 mi
12:00 PM81 °FPassing clouds.8 mph54%30.01 "Hg15 mi
11:00 AM79 °FPassing clouds.7 mph58%30.01 "Hg15 mi
10:00 AM75 °FPassing clouds.8 mph61%30.02 "Hg15 mi
9:00 AM72 °FPassing clouds.7 mph73%30.02 "Hg15 mi
8:00 AM68 °FOvercast.10 mph83%30.03 "Hg15 mi
7:00 AM63 °FOvercast.No wind94%30.03 "Hg15 mi
6:00 AM59 °FFog.No wind100%30.03 "Hg15 mi
5:00 AM63 °FFog.No wind94%30.02 "Hg15 mi
4:00 AM64 °FClear.No wind88%30.03 "Hg15 mi
3:00 AM66 °FClear.No wind78%30.03 "Hg15 mi
2:00 AM64 °FClear.3 mph78%30.03 "Hg15 mi
1:00 AM68 °FClear.6 mph69%30.03 "Hg15 mi
12:00 AM68 °FPassing clouds.No wind73%30.03 "Hg15 mi
Weather by CustomWeather, © 2014

See weather overviewHow to use our weather pages